Location: Haieshausen
(51.8387°N, 9.9720°E)
Time: 04:15:45
(UTC+00:00)

Cosmos 2242 Rocket - Pass Details

Date: 14 July 2020
Orbit: 618 x 652 km, 82.5° (Epoch: 10 August)

Event Time Altitude Azimuth Distance (km) Brightness Sun altitude
Rises 00:01:42 0° 350° (N) 2,984 8.5 -16.1°
Reaches altitude 10° 00:04:00 10° 353° (N) 2,066 7.5 -16.1°
Maximum altitude 00:08:34 69° 77° (ENE) 696 3.8 -15.9°
Enters shadow 00:11:24 23° 157° (SSE) 1,387 4.9 -15.9°
